Location: Saint-Denis
(20.8800°S, 55.4481°E)
Time: 15:09:45
(UTC+04:00)

BEESAT 2 - Visible Passes

Search period start: 05 June 2023 00:00
Search period end: 15 June 2023 00:00
Orbit: 430 x 466 km, 64.9° (Epoch: 04 June)

Date Brightness Start Highest point End Pass type
(mag) Time Alt. Az. Time Alt. Az. Time Alt. Az.
11 Jun ? 06:21:28 10° S 06:24:30 27° ESE 06:27:31 10° ENE visible
12 Jun ? 05:44:52 10° SSE 05:46:53 15° ESE 05:48:54 10° E visible
12 Jun ? 19:11:44 10° NNE 19:12:28 14° NNE 19:12:28 14° NNE visible
13 Jun ? 18:35:51 10° NE 18:36:46 11° ENE 18:36:46 11° ENE visible
13 Jun ? 20:10:05 10° WNW 20:10:23 12° WNW 20:10:23 12° WNW visible
14 Jun ? 06:04:16 10° SSW 06:07:44 80° WNW 06:11:12 10° NNE visible
14 Jun ? 19:31:47 10° NW 19:34:37 41° W 19:34:37 41° W visible
